WZZ292 EPKT-LATI

Flight info

Callsign WZZ292
Flight time 1h 28m
Altitude 24000
Route BABKO M866 NIDOK/N0442F370 DCT PARAK/N0442F380 DCT TORTO/N0439F370 DCT AKIKA/N0356F180 T8 INLOT
Aircraft A321/M-SDE3FGHIRWY/LB1

Departure

Time 2026-05-06 20:48
Airport Katowice Wojciech Korfanty International Airport (EPKT)

Arrival

Time 2026-05-06 22:17
Airport Tirana International Airport Mother Teresa (LATI)
Time Latitude Longitude Altitude Speed Heading
2026-05-06 20:35 50.47151 19.08183 1001 ft 0 kts 180°
2026-05-06 20:40 50.47174 19.08183 999 ft 4 kts 180°
2026-05-06 20:40 50.47200 19.08184 998 ft 2 kts 180°
2026-05-06 20:41 50.47223 19.08179 1000 ft 4 kts 140°
2026-05-06 20:41 50.47233 19.08146 998 ft 4 kts 92°
2026-05-06 20:41 50.47233 19.08127 998 ft 1 kts 90°
2026-05-06 20:41 50.47233 19.08126 998 ft 2 kts 90°
2026-05-06 20:43 50.47232 19.08188 998 ft 10 kts 91°
2026-05-06 20:43 50.47232 19.08313 998 ft 12 kts 90°
2026-05-06 20:44 50.47231 19.08457 1004 ft 14 kts 90°
2026-05-06 20:44 50.47231 19.08645 1004 ft 18 kts 90°
2026-05-06 20:44 50.47231 19.08852 1004 ft 20 kts 90°
2026-05-06 20:44 50.47231 19.09070 1000 ft 18 kts 90°
2026-05-06 20:45 50.47230 19.09269 1001 ft 19 kts 90°
2026-05-06 20:45 50.47230 19.09479 1004 ft 16 kts 91°
2026-05-06 20:45 50.47229 19.09661 1003 ft 17 kts 90°
2026-05-06 20:45 50.47229 19.09859 1000 ft 18 kts 90°
2026-05-06 20:46 50.47240 19.10031 1002 ft 16 kts 60°
2026-05-06 20:46 50.47311 19.10178 1000 ft 18 kts 52°
2026-05-06 20:46 50.47389 19.10333 999 ft 18 kts 52°
2026-05-06 20:46 50.47458 19.10442 1001 ft 12 kts 18°
2026-05-06 20:47 50.47550 19.10444 1003 ft 14 kts 349°
2026-05-06 20:47 50.47595 19.10313 1002 ft 16 kts 272°
2026-05-06 20:47 50.47595 19.10012 1000 ft 59 kts 270°
2026-05-06 20:47 50.47597 19.08957 1001 ft 131 kts 270°
2026-05-06 20:48 50.47600 19.07218 1077 ft 178 kts 268°
2026-05-06 20:48 50.47605 19.05331 1932 ft 171 kts 265°
2026-05-06 20:48 50.47602 19.03463 2728 ft 172 kts 263°
2026-05-06 20:48 50.47597 19.01513 3252 ft 187 kts 263°
2026-05-06 20:49 50.47592 18.99356 3510 ft 209 kts 263°
2026-05-06 20:49 50.47561 18.96951 3786 ft 228 kts 256°
2026-05-06 20:49 50.46946 18.94664 4304 ft 235 kts 230°
2026-05-06 20:49 50.45689 18.93008 4958 ft 242 kts 205°
2026-05-06 20:50 50.44034 18.92532 5778 ft 250 kts 177°
2026-05-06 20:50 50.42339 18.93351 6557 ft 260 kts 161°
2026-05-06 20:50 50.40664 18.94469 7374 ft 263 kts 161°
2026-05-06 20:50 50.38978 18.95617 8223 ft 266 kts 160°
2026-05-06 20:51 50.37274 18.96780 9076 ft 268 kts 160°
2026-05-06 20:51 50.35555 18.97950 9909 ft 271 kts 160°
2026-05-06 20:51 50.33773 18.99152 10291 ft 290 kts 161°
2026-05-06 20:51 50.31765 18.99945 10523 ft 306 kts 181°
2026-05-06 20:52 50.29617 18.99747 11086 ft 313 kts 186°
2026-05-06 20:52 50.27428 18.99467 11793 ft 318 kts 186°
2026-05-06 20:52 50.25213 18.99177 12524 ft 321 kts 187°
2026-05-06 20:52 50.22969 18.98885 13213 ft 326 kts 187°
2026-05-06 20:53 50.20692 18.98593 13869 ft 331 kts 187°
2026-05-06 20:53 50.19166 18.98399 14290 ft 333 kts 187°
2026-05-06 20:53 50.16056 18.97999 15165 ft 338 kts 187°
2026-05-06 20:53 50.13701 18.97696 15827 ft 341 kts 187°
2026-05-06 20:54 50.12129 18.97496 16268 ft 343 kts 187°
2026-05-06 20:54 50.08956 18.97093 17139 ft 348 kts 187°
2026-05-06 20:54 50.06531 18.96788 17797 ft 351 kts 187°
2026-05-06 20:54 50.04083 18.96482 18390 ft 355 kts 187°
2026-05-06 20:55 50.01615 18.96173 18954 ft 358 kts 187°
2026-05-06 20:55 49.99930 18.95963 19349 ft 359 kts 187°
2026-05-06 20:55 49.97433 18.95651 19946 ft 362 kts 187°
2026-05-06 20:55 49.94914 18.95333 20535 ft 364 kts 187°
2026-05-06 20:56 49.92375 18.95012 21125 ft 367 kts 187°
2026-05-06 20:56 49.89852 18.94694 21679 ft 370 kts 187°
2026-05-06 20:56 49.86393 18.94257 22412 ft 375 kts 188°
2026-05-06 20:56 49.84629 18.94034 22786 ft 377 kts 188°
2026-05-06 20:57 49.82001 18.93704 23329 ft 380 kts 188°
2026-05-06 20:57 49.79389 18.93378 23792 ft 383 kts 188°
2026-05-06 20:57 49.76723 18.93049 24204 ft 386 kts 187°
2026-05-06 20:57 49.74027 18.92711 24597 ft 390 kts 188°
2026-05-06 20:58 49.71314 18.92369 25041 ft 393 kts 188°
2026-05-06 20:58 49.68577 18.92026 25479 ft 395 kts 188°
2026-05-06 20:58 49.65828 18.91681 25905 ft 398 kts 188°
2026-05-06 20:58 49.63060 18.91333 26333 ft 400 kts 188°
2026-05-06 20:59 49.60278 18.90986 26767 ft 402 kts 188°
2026-05-06 20:59 49.57481 18.90642 27181 ft 405 kts 188°
2026-05-06 20:59 49.54660 18.90299 27595 ft 407 kts 188°
2026-05-06 20:59 49.51829 18.89954 27994 ft 410 kts 188°
2026-05-06 21:00 49.48976 18.89605 28411 ft 412 kts 188°
2026-05-06 21:00 49.46114 18.89250 28813 ft 414 kts 188°
2026-05-06 21:00 49.43227 18.88889 29192 ft 416 kts 188°
2026-05-06 21:00 49.40337 18.88529 29580 ft 419 kts 188°
2026-05-06 21:01 49.37427 18.88168 29951 ft 421 kts 188°
2026-05-06 21:01 49.34494 18.87809 30257 ft 424 kts 188°
2026-05-06 21:01 49.31548 18.87450 30578 ft 426 kts 188°
2026-05-06 21:01 49.28585 18.87092 30889 ft 428 kts 188°
2026-05-06 21:02 49.25603 18.86730 31211 ft 431 kts 188°
2026-05-06 21:02 49.22615 18.86365 31635 ft 430 kts 188°
2026-05-06 21:02 49.19635 18.86001 32098 ft 429 kts 188°
2026-05-06 21:02 49.16667 18.85640 32566 ft 427 kts 188°
2026-05-06 21:03 49.13706 18.85281 33043 ft 426 kts 188°
2026-05-06 21:03 49.10762 18.84923 33488 ft 425 kts 189°
2026-05-06 21:03 49.07814 18.84559 33878 ft 424 kts 188°
2026-05-06 21:03 49.04880 18.84198 34230 ft 423 kts 188°
2026-05-06 21:04 49.01940 18.83839 34563 ft 423 kts 188°
2026-05-06 21:04 48.99043 18.83491 34899 ft 423 kts 188°
2026-05-06 21:04 48.96107 18.83138 35240 ft 423 kts 188°
2026-05-06 21:04 48.93176 18.82785 35588 ft 423 kts 188°
2026-05-06 21:05 48.90245 18.82449 35938 ft 423 kts 185°
2026-05-06 21:05 48.87296 18.82614 36249 ft 427 kts 176°
2026-05-06 21:05 48.84374 18.83538 36531 ft 432 kts 167°
2026-05-06 21:05 48.81506 18.84954 36826 ft 434 kts 166°
2026-05-06 21:06 48.78637 18.86384 37114 ft 434 kts 166°
2026-05-06 21:06 48.75768 18.87810 37405 ft 433 kts 166°
2026-05-06 21:06 48.72904 18.89228 37685 ft 433 kts 166°
2026-05-06 21:06 48.70039 18.90640 37864 ft 434 kts 166°
2026-05-06 21:07 48.67167 18.92048 37910 ft 433 kts 166°
2026-05-06 21:07 48.61438 18.94856 37895 ft 433 kts 166°
2026-05-06 21:08 48.55705 18.97674 37907 ft 434 kts 166°
2026-05-06 21:08 48.49958 19.00489 37910 ft 435 kts 166°
2026-05-06 21:09 48.44198 19.03298 37913 ft 435 kts 166°
2026-05-06 21:09 48.38437 19.06096 37918 ft 435 kts 166°
2026-05-06 21:10 48.32675 19.08899 37922 ft 435 kts 166°
2026-05-06 21:10 48.26913 19.11695 37928 ft 435 kts 166°
2026-05-06 21:11 48.21150 19.14476 37927 ft 435 kts 166°
2026-05-06 21:11 48.15389 19.17256 37931 ft 435 kts 166°
2026-05-06 21:12 48.09633 19.20031 37928 ft 435 kts 166°
2026-05-06 21:12 48.03866 19.22804 37934 ft 435 kts 166°
2026-05-06 21:13 47.98102 19.25573 37937 ft 435 kts 166°
2026-05-06 21:13 47.92336 19.28318 37937 ft 435 kts 166°
2026-05-06 21:14 47.86569 19.31056 37934 ft 435 kts 166°
2026-05-06 21:14 47.80801 19.33797 37921 ft 435 kts 166°
2026-05-06 21:15 47.75028 19.36538 37935 ft 435 kts 166°
2026-05-06 21:15 47.69261 19.39270 37942 ft 435 kts 166°
2026-05-06 21:16 47.63492 19.41998 37933 ft 435 kts 166°
2026-05-06 21:16 47.57723 19.44725 37933 ft 435 kts 166°
2026-05-06 21:17 47.51947 19.47445 37939 ft 436 kts 166°
2026-05-06 21:17 47.46167 19.50146 37942 ft 436 kts 166°
2026-05-06 21:18 47.40379 19.52845 37932 ft 436 kts 166°
2026-05-06 21:18 47.34634 19.55524 37940 ft 436 kts 166°
2026-05-06 21:19 47.28811 19.58234 37942 ft 436 kts 166°
2026-05-06 21:19 47.23031 19.60931 37945 ft 436 kts 166°
2026-05-06 21:20 47.17285 19.63601 37948 ft 436 kts 166°
2026-05-06 21:20 47.11494 19.66279 37949 ft 436 kts 166°
2026-05-06 21:21 47.05711 19.68943 37953 ft 436 kts 166°
2026-05-06 21:21 46.99923 19.71603 37961 ft 436 kts 166°
2026-05-06 21:22 46.94140 19.74263 37966 ft 436 kts 166°
2026-05-06 21:22 46.88355 19.76919 37960 ft 436 kts 166°
2026-05-06 21:23 46.82573 19.79569 37968 ft 436 kts 166°
2026-05-06 21:23 46.76782 19.82212 37964 ft 436 kts 166°
2026-05-06 21:24 46.70992 19.84839 37956 ft 436 kts 166°
2026-05-06 21:24 46.65200 19.87468 37940 ft 436 kts 166°
2026-05-06 21:25 46.59402 19.90103 37946 ft 437 kts 166°
2026-05-06 21:25 46.53600 19.92725 37947 ft 437 kts 166°
2026-05-06 21:26 46.47787 19.95339 37951 ft 437 kts 166°
2026-05-06 21:26 46.41971 19.97962 37942 ft 438 kts 166°
2026-05-06 21:27 46.36146 20.00577 37941 ft 439 kts 166°
2026-05-06 21:27 46.30308 20.03195 37952 ft 439 kts 166°
2026-05-06 21:28 46.24482 20.05797 37517 ft 437 kts 166°
2026-05-06 21:28 46.21582 20.07091 37026 ft 435 kts 166°
2026-05-06 21:28 46.18693 20.08293 36890 ft 429 kts 172°
2026-05-06 21:29 46.12763 20.08861 36933 ft 427 kts 189°
2026-05-06 21:29 46.06894 20.07955 36934 ft 428 kts 189°
2026-05-06 21:30 46.00933 20.07057 36936 ft 428 kts 189°
2026-05-06 21:30 45.95048 20.06176 36940 ft 429 kts 189°
2026-05-06 21:31 45.89110 20.05286 36945 ft 429 kts 189°
2026-05-06 21:31 45.83173 20.04397 36950 ft 429 kts 190°
2026-05-06 21:32 45.77226 20.03501 36931 ft 430 kts 190°
2026-05-06 21:32 45.68293 20.02165 36941 ft 431 kts 190°
2026-05-06 21:33 45.62329 20.01272 36948 ft 431 kts 190°
2026-05-06 21:33 45.56360 20.00385 36941 ft 431 kts 191°
2026-05-06 21:34 45.50382 19.99495 36949 ft 432 kts 191°
2026-05-06 21:34 45.44409 19.98607 36949 ft 432 kts 191°
2026-05-06 21:35 45.38427 19.97723 36941 ft 432 kts 191°
2026-05-06 21:35 45.32444 19.96839 36949 ft 432 kts 191°
2026-05-06 21:36 45.26461 19.95956 36953 ft 432 kts 191°
2026-05-06 21:36 45.20473 19.95078 36955 ft 433 kts 191°
2026-05-06 21:37 45.14490 19.94194 36944 ft 432 kts 191°
2026-05-06 21:37 45.08503 19.93311 36949 ft 433 kts 191°
2026-05-06 21:38 45.02511 19.92442 36950 ft 433 kts 191°
2026-05-06 21:38 44.96522 19.91577 36959 ft 433 kts 191°
2026-05-06 21:39 44.90531 19.90702 36964 ft 433 kts 191°
2026-05-06 21:39 44.84541 19.89824 36964 ft 433 kts 191°
2026-05-06 21:40 44.78551 19.88960 36956 ft 433 kts 191°
2026-05-06 21:40 44.73567 19.88244 36959 ft 433 kts 191°
2026-05-06 21:41 44.67570 19.87381 36963 ft 433 kts 191°
2026-05-06 21:41 44.61578 19.86518 36965 ft 433 kts 191°
2026-05-06 21:42 44.55579 19.85646 36970 ft 433 kts 192°
2026-05-06 21:42 44.49580 19.84784 36975 ft 433 kts 192°
2026-05-06 21:43 44.43577 19.83936 36983 ft 434 kts 192°
2026-05-06 21:43 44.37579 19.83083 36975 ft 433 kts 192°
2026-05-06 21:44 44.31619 19.82219 36986 ft 434 kts 192°
2026-05-06 21:44 44.25612 19.81355 36999 ft 434 kts 192°
2026-05-06 21:45 44.19599 19.80506 37003 ft 434 kts 192°
2026-05-06 21:45 44.13591 19.79665 37020 ft 434 kts 192°
2026-05-06 21:46 44.07579 19.78817 37027 ft 434 kts 192°
2026-05-06 21:46 44.01578 19.77964 37019 ft 434 kts 192°
2026-05-06 21:47 43.95568 19.77114 37021 ft 434 kts 192°
2026-05-06 21:47 43.89554 19.76272 37033 ft 434 kts 192°
2026-05-06 21:48 43.83542 19.75427 37033 ft 434 kts 192°
2026-05-06 21:48 43.77526 19.74590 37052 ft 435 kts 192°
2026-05-06 21:49 43.71508 19.73750 37064 ft 435 kts 192°
2026-05-06 21:49 43.65489 19.72911 37058 ft 435 kts 192°
2026-05-06 21:50 43.59445 19.72193 37061 ft 436 kts 191°
2026-05-06 21:50 43.53398 19.71550 37078 ft 436 kts 191°
2026-05-06 21:51 43.50371 19.71223 36950 ft 436 kts 191°
2026-05-06 21:51 43.47387 19.70894 36690 ft 435 kts 191°
2026-05-06 21:51 43.44337 19.70551 36409 ft 434 kts 191°
2026-05-06 21:51 43.41329 19.70212 36163 ft 434 kts 191°
2026-05-06 21:52 43.38365 19.69872 35910 ft 433 kts 191°
2026-05-06 21:52 43.35356 19.69525 35347 ft 436 kts 191°
2026-05-06 21:52 43.32278 19.69170 34632 ft 439 kts 190°
2026-05-06 21:52 43.29286 19.68831 34191 ft 436 kts 190°
2026-05-06 21:53 43.26274 19.68494 33665 ft 433 kts 190°
2026-05-06 21:53 43.23287 19.68162 33201 ft 428 kts 190°
2026-05-06 21:53 43.20330 19.67829 32715 ft 425 kts 190°
2026-05-06 21:53 43.17397 19.67498 32227 ft 421 kts 190°
2026-05-06 21:54 43.14487 19.67172 31745 ft 418 kts 190°
2026-05-06 21:54 43.11600 19.66851 31268 ft 415 kts 190°
2026-05-06 21:54 43.08732 19.66530 30793 ft 412 kts 190°
2026-05-06 21:54 43.05891 19.66211 30321 ft 409 kts 190°
2026-05-06 21:55 43.03063 19.65895 29811 ft 406 kts 189°
2026-05-06 21:55 43.00268 19.65583 29359 ft 400 kts 189°
2026-05-06 21:55 42.97517 19.65276 28921 ft 395 kts 189°
2026-05-06 21:55 42.94790 19.64972 28480 ft 391 kts 189°
2026-05-06 21:56 42.92093 19.64674 28045 ft 388 kts 189°
2026-05-06 21:56 42.89412 19.64378 27622 ft 385 kts 189°
2026-05-06 21:56 42.86757 19.64081 27218 ft 382 kts 189°
2026-05-06 21:56 42.84121 19.63787 26810 ft 379 kts 189°
2026-05-06 21:57 42.81500 19.63495 26425 ft 377 kts 189°
2026-05-06 21:57 42.78893 19.63207 26029 ft 374 kts 189°
2026-05-06 21:57 42.76308 19.62921 25635 ft 372 kts 189°
2026-05-06 21:57 42.73734 19.62635 25246 ft 370 kts 189°
2026-05-06 21:58 42.71181 19.62355 24851 ft 367 kts 189°
2026-05-06 21:58 42.68647 19.62078 24458 ft 364 kts 188°
2026-05-06 21:58 42.66132 19.61801 24066 ft 362 kts 188°
2026-05-06 21:58 42.63632 19.61522 23646 ft 360 kts 188°
2026-05-06 21:59 42.61138 19.61245 23198 ft 357 kts 188°
2026-05-06 21:59 42.58682 19.60973 22791 ft 352 kts 188°
2026-05-06 21:59 42.56253 19.60703 22378 ft 349 kts 188°
2026-05-06 21:59 42.53841 19.60430 21967 ft 345 kts 190°
2026-05-06 22:00 42.51527 19.59881 21566 ft 340 kts 195°
2026-05-06 22:00 42.49224 19.59247 21180 ft 337 kts 195°
2026-05-06 22:00 42.46931 19.58614 20787 ft 335 kts 195°
2026-05-06 22:00 42.44661 19.57990 20387 ft 332 kts 195°
2026-05-06 22:01 42.42401 19.57371 19996 ft 330 kts 195°
2026-05-06 22:01 42.40160 19.56757 19600 ft 327 kts 195°
2026-05-06 22:01 42.37937 19.56149 19209 ft 325 kts 195°
2026-05-06 22:01 42.35723 19.55545 18823 ft 324 kts 195°
2026-05-06 22:02 42.33520 19.54945 18438 ft 322 kts 195°
2026-05-06 22:02 42.31332 19.54349 18000 ft 320 kts 195°
2026-05-06 22:02 42.29161 19.53758 17624 ft 317 kts 195°
2026-05-06 22:02 42.27008 19.53171 17247 ft 314 kts 195°
2026-05-06 22:03 42.24873 19.52590 16872 ft 312 kts 195°
2026-05-06 22:03 42.22754 19.52013 16503 ft 310 kts 195°
2026-05-06 22:03 42.20647 19.51442 16122 ft 308 kts 195°
2026-05-06 22:03 42.18552 19.50874 15759 ft 306 kts 194°
2026-05-06 22:04 42.16472 19.50308 15393 ft 304 kts 194°
2026-05-06 22:04 42.14404 19.49746 15025 ft 302 kts 194°
2026-05-06 22:04 42.12347 19.49190 14659 ft 300 kts 194°
2026-05-06 22:04 42.10306 19.48640 14300 ft 299 kts 194°
2026-05-06 22:05 42.08274 19.48095 13939 ft 297 kts 194°
2026-05-06 22:05 42.06256 19.47553 13553 ft 295 kts 194°
2026-05-06 22:05 42.04256 19.47012 13194 ft 291 kts 194°
2026-05-06 22:05 42.02281 19.46475 12846 ft 288 kts 194°
2026-05-06 22:06 42.00316 19.45995 12504 ft 287 kts 188°
2026-05-06 22:06 41.98326 19.46008 12164 ft 287 kts 176°
2026-05-06 22:06 41.96359 19.46604 11630 ft 298 kts 164°
2026-05-06 22:06 41.94432 19.47803 10916 ft 312 kts 155°
2026-05-06 22:07 41.92499 19.49196 10284 ft 318 kts 154°
2026-05-06 22:07 41.90554 19.50602 9931 ft 313 kts 154°
2026-05-06 22:07 41.88678 19.51964 9800 ft 301 kts 154°
2026-05-06 22:07 41.86870 19.53270 9601 ft 291 kts 155°
2026-05-06 22:08 41.85094 19.54543 9069 ft 288 kts 154°
2026-05-06 22:08 41.83340 19.55793 8458 ft 283 kts 154°
2026-05-06 22:08 41.81615 19.57022 7720 ft 279 kts 154°
2026-05-06 22:08 41.79911 19.58234 6992 ft 275 kts 154°
2026-05-06 22:09 41.78243 19.59424 6379 ft 269 kts 154°
2026-05-06 22:09 41.76601 19.60597 5809 ft 269 kts 154°
2026-05-06 22:09 41.74944 19.61775 5448 ft 267 kts 154°
2026-05-06 22:09 41.73344 19.62914 5141 ft 257 kts 154°
2026-05-06 22:10 41.71820 19.64000 4986 ft 234 kts 154°
2026-05-06 22:10 41.70415 19.64999 4877 ft 224 kts 154°
2026-05-06 22:10 41.69069 19.65956 4770 ft 217 kts 154°
2026-05-06 22:10 41.67740 19.66899 4672 ft 216 kts 154°
2026-05-06 22:11 41.66414 19.67841 4583 ft 216 kts 154°
2026-05-06 22:11 41.65108 19.68708 4469 ft 203 kts 163°
2026-05-06 22:11 41.63752 19.69066 4247 ft 197 kts 174°
2026-05-06 22:11 41.62414 19.69263 3997 ft 196 kts 175°
2026-05-06 22:12 41.61039 19.69448 3743 ft 196 kts 174°
2026-05-06 22:12 41.59678 19.69629 3487 ft 197 kts 174°
2026-05-06 22:12 41.58357 19.69806 3245 ft 189 kts 174°
2026-05-06 22:12 41.57084 19.69976 2980 ft 179 kts 174°
2026-05-06 22:13 41.55855 19.70140 2737 ft 171 kts 175°
2026-05-06 22:13 41.54722 19.70292 2527 ft 159 kts 175°
2026-05-06 22:13 41.53636 19.70437 2316 ft 149 kts 175°
2026-05-06 22:13 41.52635 19.70570 2115 ft 142 kts 175°
2026-05-06 22:14 41.51679 19.70698 1925 ft 139 kts 175°
2026-05-06 22:14 41.50722 19.70825 1739 ft 138 kts 175°
2026-05-06 22:14 41.49768 19.70952 1552 ft 138 kts 175°
2026-05-06 22:14 41.48812 19.71080 1373 ft 138 kts 175°
2026-05-06 22:15 41.47846 19.71208 1179 ft 138 kts 174°
2026-05-06 22:15 41.46907 19.71333 999 ft 137 kts 174°
2026-05-06 22:15 41.45958 19.71460 807 ft 137 kts 174°
2026-05-06 22:15 41.45006 19.71585 653 ft 138 kts 175°
2026-05-06 22:16 41.44051 19.71713 423 ft 138 kts 174°
2026-05-06 22:16 41.43098 19.71842 237 ft 138 kts 174°
2026-05-06 22:16 41.42160 19.71966 122 ft 127 kts 174°
2026-05-06 22:16 41.41416 19.72063 126 ft 89 kts 174°
2026-05-06 22:17 41.40921 19.72130 133 ft 39 kts 174°
2026-05-06 22:17 41.40765 19.72152 134 ft 21 kts 173°
2026-05-06 22:17 41.40681 19.72100 134 ft 13 kts 252°
2026-05-06 22:17 41.40661 19.71992 132 ft 11 kts 256°
2026-05-06 22:18 41.40645 19.71898 132 ft 10 kts 257°
2026-05-06 22:18 41.40634 19.71812 132 ft 8 kts 275°
2026-05-06 22:18 41.40680 19.71772 132 ft 10 kts 351°
2026-05-06 22:18 41.40755 19.71760 132 ft 12 kts 353°
2026-05-06 22:19 41.40847 19.71740 132 ft 15 kts 348°
2026-05-06 22:19 41.40953 19.71715 127 ft 15 kts 353°
2026-05-06 22:19 41.41052 19.71702 129 ft 15 kts 354°
2026-05-06 22:19 41.41163 19.71687 126 ft 17 kts 354°
2026-05-06 22:20 41.41287 19.71670 129 ft 19 kts 354°
2026-05-06 22:20 41.41402 19.71655 126 ft 14 kts 355°
2026-05-06 22:20 41.41509 19.71640 123 ft 17 kts 354°
2026-05-06 22:20 41.41620 19.71626 125 ft 13 kts 355°
2026-05-06 22:21 41.41705 19.71614 122 ft 13 kts 354°
2026-05-06 22:21 41.41797 19.71601 122 ft 10 kts 354°
2026-05-06 22:21 41.41866 19.71592 121 ft 9 kts 354°
2026-05-06 22:21 41.41923 19.71585 121 ft 8 kts 354°
2026-05-06 22:22 41.41989 19.71575 118 ft 9 kts 354°
2026-05-06 22:22 41.42042 19.71568 120 ft 6 kts 354°
2026-05-06 22:22 41.42068 19.71536 121 ft 6 kts 277°
2026-05-06 22:22 41.42066 19.71510 122 ft 2 kts 263°
2026-05-06 22:23 41.42065 19.71497 121 ft 1 kts 263°
2026-05-06 22:23 41.42065 19.71496 121 ft 0 kts 263°